This demonstration page uses our WeatherBlox Daily Observations layout. Learn more.

Left ArrowRight Arrow

Hourly Observations for October 6, 2019

Temp ( °F °C ) Dew Point ( °F °C ) Humidity (%) Winds ( mph kmh ) Pressure ( in mb ) Visibility ( mi km ) Precip ( " mm )
12:53 am 00:53 Clear 70 21.1 57 13.9 64 64 N 6 9 29.85 1011 10 16 0.00 0.00
1:53 am 01:53 Mostly Clear 69 20.6 56 13.3 63 63 N 5 7 29.85 1011 10 16 0.00 0.00
2:53 am 02:53 Clear 68 20 56 13.3 65 65 N 3 6 29.85 1011 10 16 0.00 0.00
3:53 am 03:53 Mostly Clear 65 18.3 55 12.8 70 70 NNE 5 7 29.85 1011 10 16 0.00 0.00
4:53 am 04:53 Clear 64 17.8 56 13.3 75 75 N 7 11 29.85 1011 10 16 0.00 0.00
5:53 am 05:53 Mostly Clear 64 17.8 57 13.9 78 78 N 6 9 29.86 1011 10 16 0.00 0.00
6:53 am 06:53 Clear 62 16.7 56 13.3 80 80 NE 3 6 29.88 1012 10 16 0.00 0.00
7:53 am 07:53 Sunny 61 16.1 56 13.3 84 84 N 6 9 29.91 1013 10 16 0.00 0.00
8:53 am 08:53 Sunny 67 19.4 55 12.8 66 66 NNW 3 6 29.91 1013 10 16 0.00 0.00
9:53 am 09:53 Sunny 74 23.3 54 12.2 50 50 Calm 29.93 1014 10 16 0.00 0.00
10:53 am 10:53 Sunny 81 27.2 53 11.7 38 38 W 3 6 29.93 1014 10 16 0.00 0.00
11:53 am 11:53 Sunny 86 30 47 8.3 26 26 SW 6 9 29.92 1013 10 16 0.00 0.00
12:53 pm 12:53 Sunny 89 31.7 43 6.1 20 20 W 8 13 29.91 1013 10 16 0.00 0.00
1:53 pm 13:53 Sunny 90 32.2 40 4.4 17 17 undefined N/A 29.89 1012 10 16 0.00 0.00
2:53 pm 14:53 Sunny 92 33.3 39 3.9 16 16 W 10 17 29.87 1012 10 16 0.00 0.00
3:53 pm 15:53 Sunny 92 33.3 41 5 17 17 NNW 9 15 29.86 1011 10 16 0.00 0.00
4:53 pm 16:53 Sunny 94 34.4 44 6.7 18 18 N 12 19 29.86 1011 10 16 0.00 0.00
5:53 pm 17:53 Sunny 93 33.9 41 5 16 16 NNW 10 17 29.85 1011 10 16 0.00 0.00
6:53 pm 18:53 Sunny 90 32.2 39 3.9 17 17 N 8 13 29.87 1012 10 16 0.00 0.00
7:53 pm 19:53 Clear 81 27.2 43 6.1 26 26 N 7 11 29.91 1013 10 16 0.00 0.00
8:53 pm 20:53 Clear with Light Rain 79 26.1 53 11.7 41 41 NE 24 39 29.96 1015 10 16 0.00 0.00
9:53 pm 21:53 Clear 75 23.9 52 11.1 45 45 NE 18 30 30.01 1016 10 16 0.00 0.00
10:53 pm 22:53 Clear 71 21.7 54 12.2 55 55 NE 26 43 30.06 1018 9 14 0.00 0.00
11:53 pm 23:53 Clear 68 20 51 10.6 55 55 NE 24 39 30.09 1019 10 16 0.00 0.00

Powered by AerisWeather